Regional Weather Roundup
Issued by NWS State College, PA

Home | Current Version | Previous Version | Text Only | Print | Product List | Glossary Off
Versions: 1 2 3 4 5 6 7 8 9 10 11 12 13 14 15 16 17 18 19 20 21 22 23 24 25 26 27 28 29 30 31 32 33 34 35 36 37 38 39 40 41 42 43 44 45 46 47 48 49 50

000
ASUS41 KCTP 221910
RWRCTP

REGIONAL WEATHER ROUNDUP
NATIONAL WEATHER SERVICE STATE COLLEGE PA
300 PM EDT WED OCT 22 2014

Note: "fair" indicates few or no clouds below 12,000 feet with no
significant weather and/or obstructions to visibility.

* = STATION THAT DOES NOT REPORT PRECIPITATION /E.G. RAIN...SNOW...ETC/
    THUNDER OR FOG.

PAZ002>004-007>009-013>016-020>023-029>032-222000-
WESTERN PENNSYLVANIA

CITY           SKY/WX    TMP DP  RH WIND       PRES   REMARKS
ERIE           CLOUDY    49  41  74 NE10      30.23S
MEADVILLE      CLOUDY    46  40  79 N9        30.20S
FRANKLIN*      CLOUDY    45  39  81 N10       30.19S
NEW CASTLE       N/A     49  42  76 N12       30.20S
BEAVER COUNTY  CLOUDY    48  41  76 N8        30.18S
BUTLER*        CLOUDY    48  39  71 NW8       30.18F
PITTSBURGH INT CLOUDY    49  41  74 N15       30.17R
PITTSBURGH     CLOUDY    49  39  68 NW9G17    30.15R
INDIANA*       CLOUDY    48  43  81 N8        30.17S
LATROBE        CLOUDY   N/A N/A N/A NE7       30.15R
WASHINGTON CO* CLOUDY    48  41  76 NW7       30.18S
$$

PAZ004>006-010>012-017>019-024>028-033>037-041-042-045-046-049>053-222000-
CENTRAL PENNSYLVANIA

CITY           SKY/WX    TMP DP  RH WIND       PRES   REMARKS
BRADFORD       CLOUDY    42  40  92 N10       30.13F FOG
DUBOIS         CLOUDY    45  41  86 N13G20    30.12S
CLEARFIELD     CLOUDY    48  41  76 N17G24    30.10S
JOHNSTOWN      CLOUDY    44  41  89 NW10      30.09S
ALTOONA        CLOUDY    51  43  74 NW14G23   30.06R
STATE COLLEGE  CLOUDY    52  43  71 N13G18    30.05F
WILLIAMSPORT   CLOUDY    54  43  66 N13G21    30.03F
SELINSGROVE    CLOUDY    54  45  71 N9        30.01F
FT INDIANTOWN  CLOUDY    55  52  88 N9G17     29.96F
CAPITAL CITY   CLOUDY    55  46  71 N13G24    29.97S
HARRISBURG     CLOUDY    55  47  74 N14G25    29.95F
YORK           CLOUDY    54  47  77 NW14G24   29.95S
$$

PAZ038>040-043-044-047-048-054-055-060>062-067>071-222000-
EASTERN PENNSYLVANIA

CITY           SKY/WX    TMP DP  RH WIND       PRES   REMARKS
SCRANTON       LGT RAIN  53  46  77 N13       29.97F
MOUNT POCONO   CLOUDY    50  45  83 N14G23    29.92F
ALLENTOWN      CLOUDY    57  48  72 N10       29.91F
QUAKERTOWN*    CLOUDY    54  48  82 N9        29.90S
READING        CLOUDY    57  48  72 N14G22    29.91S
LANCASTER      CLOUDY    54  48  80 N14G23    29.92F
COATESVILLE    LGT RAIN  54  50  87 N12G17    29.89F
POTTSTOWN      LGT RAIN  55  49  80 N10       29.90F
BLUE BELL      CLOUDY    54  52  94 N7        29.86S
DOYLESTOWN     LGT RAIN  53  50  89 N14G22    29.86F
WILLOW GROVE   NOT AVBL
NORTH PHILA    LGT RAIN  56  49  77 N18G25    29.86F
PHILADELPHIA   RAIN      55  51  86 N16       29.85F
$$



USA.gov is the U.S. government's official web portal to all federal, state and local government web resources and services.